Temperature
17 17 17 17 17 17 17 17 17 17 17 16 16 16 16 16 17 17 17 17 17 17 17 17 17 17 17 17 17 17 17 17 17 18 18 18 18 18 18 18 18 18 18
17 17 17 17 17 17 17 17 17 16 16 16 16 16 16 16 16 16 16 16 16 17 16 16 16 16 16 17 17 17 17 17 17 17 17 17 18 18 18 18 18 18 18
17 17 17 17 17 17 16 16 16 16 16 16 16 16 16 16 16 16 16 16 16 16 16 16 16 16 16 16 17 17 17 17 17 17 17 17 17 18 18 18 18 18 18
17 17 17 17 17 16 16 16 16 16 16 16 16 16 16 16 16 16 16 16 16 16 16 16 16 16 16 16 16 17 17 17 17 17 17 17 17 17 18 18 18 18 18
17 17 17 17 16 16 16 16 16 16 16 16 15 15 15 15 15 15 15 15 15 15 16 16 16 16 16 16 16 16 17 17 17 17 17 17 17 17 17 17 17 18 18
17 17 17 16 16 16 16 16 16 16 15 15 15 15 15 15 15 15 15 15 15 15 15 15 16 16 16 16 16 16 17 17 17 17 17 17 17 17 17 17 17 18 18
17 17 16 16 16 16 16 16 16 15 15 15 15 15 15 15 15 15 15 15 15 15 15 15 16 16 16 16 16 16 16 17 17 17 17 17 17 17 17 17 17 17 17
17 17 16 16 16 16 16 16 15 15 15 15 15 15 15 15 15 15 15 15 15 15 15 15 15 16 16 16 16 16 16 16 17 17 17 17 17 17 17 17 17 17 17
17 17 16 16 16 16 16 15 15 15 15 15 15 15 15 15 15 15 15 15 15 15 15 15 15 15 16 16 16 16 16 16 16 16 16 17 17 17 17 17 17 17 17
17 17 16 16 16 16 16 16 15 15 15 15 15 15 15 15 15 15 15 15 15 15 15 15 15 15 15 16 16 16 16 16 16 16 16 16 17 17 17 17 17 17 17
17 17 16 16 16 16 16 16 15 15 15 15 15 15 15 15 15 15 15 15 15 15 15 15 15 15 15 16 16 16 16 16 16 16 16 16 16 16 16 17 17 17 17
17 17 17 16 16 16 16 16 16 15 15 15 15 15 15 15 15 15 15 15 15 15 15 15 15 15 16 16 16 16 16 16 16 16 16 16 16 16 16 16 16 17 17
17 17 17 17 16 16 16 16 16 15 15 15 15 15 15 15 15 15 15 15 15 15 15 15 15 15 16 16 16 16 16 16 16 16 16 16 16 16 16 16 16 16 17
17 17 17 17 16 16 16 16 16 15 15 15 15 15 15 15 15 15 15 15 15 15 15 15 15 15 15 15 15 16 16 16 16 16 16 16 16 16 16 16 16 16 16
17 17 17 17 16 16 16 16 16 15 15 15 15 15 15 15 15 15 15 15 15 15 15 15 15 15 15 15 15 15 15 15 15 15 15 16 16 16 16 16 16 16 16
18 17 17 17 17 16 16 16 16 15 15 15 15 15 15 15 15 15 15 15 15 15 15 15 15 15 15 15 15 15 15 15 15 15 15 15 15 15 16 16 16 16 16
18 18 17 17 17 16 16 16 16 15 15 15 15 15 15 15 15 15 15 15 15 15 15 15 15 15 15 15 15 15 15 15 15 15 15 15 15 15 15 16 16 16 16
18 18 17 17 17 16 16 16 16 16 15 15 15 15 15 15 15 15 15 15 15 15 15 15 15 15 15 15 15 15 15 15 15 15 15 15 15 15 15 15 15 16 16
18 18 17 17 17 16 16 16 16 16 15 15 15 15 15 15 15 15 15 15 15 15 15 15 15 15 15 15 15 15 15 15 15 15 15 15 15 15 15 15 15 15 16
18 18 17 17 17 17 16 16 16 16 15 15 15 15 15 15 15 15 15 15 15 15 15 15 15 15 15 15 15 15 15 15 15 15 15 15 15 15 15 15 15 15 15
18 18 17 17 17 17 16 16 16 16 15 15 15 15 15 15 15 15 15 15 15 15 15 15 15 15 15 15 15 15 14 14 14 14 14 14 14 15 15 15 15 15 15
18 18 17 17 17 17 16 16 16 16 15 15 15 15 15 15 15 15 15 15 15 15 15 15 15 15 15 15 15 15 14 14 14 14 14 14 14 14 15 15 15 15 15
18 18 18 17 17 17 16 16 16 16 16 15 15 15 15 15 15 15 15 15 15 15 15 15 15 15 15 15 15 15 15 14 13 13 14 14 14 14 14 14 14 15 15
18 18 18 17 17 17 17 16 16 16 16 16 15 15 15 15 15 15 15 15 15 15 15 15 15 15 15 15 15 15 15 14 14 13 13 13 14 14 14 14 14 14 14
18 18 18 17 17 17 17 17 16 16 16 16 15 15 15 15 15 15 15 15 15 15 15 15 15 15 15 15 15 15 15 14 14 14 13 13 13 13 13 13 14 14 14
18 18 18 18 17 17 17 17 16 16 16 16 15 15 15 15 15 15 15 15 15 15 15 15 15 15 15 15 15 15 15 15 14 14 14 13 13 13 13 13 13 13 14
Wind_Speed
1 2 8 10 11 12 12 12 12 12 12 11 11 11 10 10 10 9 9 8 8 8 8 7 7 7 7 6 6 5 5 5 5 5 4 4 4 5 5 5 4 3 4
3 5 9 10 11 11 12 12 12 11 11 11 11 11 11 10 10 9 8 8 8 7 7 7 7 7 7 6 6 5 5 5 4 4 4 4 4 4 4 5 4 4 4
5 6 9 10 11 11 12 12 11 11 11 11 11 11 10 10 9 9 8 8 7 7 7 7 7 7 7 6 6 6 6 5 5 5 5 4 4 4 4 4 4 4 4
6 7 8 10 11 11 11 11 11 11 11 10 10 10 9 9 9 8 8 8 8 7 6 6 6 6 6 6 6 5 5 6 5 5 5 4 3 4 4 4 4 4 4
6 7 8 9 10 10 10 10 10 10 10 9 9 9 8 7 7 7 7 7 7 6 6 6 6 6 6 6 5 5 5 5 5 5 4 3 3 3 4 4 4 4 4
5 6 7 8 9 9 9 9 9 9 9 8 7 7 7 7 6 6 6 6 6 6 6 6 6 6 6 6 5 5 5 5 6 5 4 3 2 3 4 4 4 4 4
4 5 6 7 8 8 7 8 7 7 7 6 6 6 6 6 6 6 6 5 5 5 5 5 5 5 5 6 5 5 5 5 6 4 3 2 2 3 4 4 4 4 4
4 4 4 6 6 6 6 6 6 6 5 6 6 6 5 5 6 6 6 6 6 6 5 5 4 4 4 5 5 5 5 5 5 4 3 2 2 3 4 4 4 5 4
4 4 4 4 4 5 5 5 5 5 5 6 6 6 6 6 6 6 7 6 6 6 5 5 4 4 4 5 5 6 6 6 6 4 4 3 2 3 4 5 5 5 5
4 3 3 3 4 5 5 5 6 6 7 7 7 7 8 8 8 8 8 8 7 7 7 6 5 5 6 6 6 6 6 6 6 5 4 3 3 4 5 5 5 5 6
2 1 1 2 3 4 4 5 7 7 9 9 9 9 9 9 9 8 9 9 9 8 8 8 8 7 7 7 7 7 7 6 6 5 4 4 4 5 5 5 5 6 7
2 1 1 1 2 3 4 6 7 8 8 9 8 9 9 8 8 8 10 11 10 10 9 9 9 9 9 8 8 8 7 6 6 5 5 5 5 6 6 6 6 7 8
2 1 1 1 1 2 4 5 6 7 7 8 9 8 8 8 8 9 9 10 10 10 9 9 9 8 8 7 7 7 7 7 6 6 6 6 6 7 7 7 8 8 9
2 2 1 2 3 3 4 4 5 5 6 6 7 7 7 6 6 6 6 7 8 7 7 7 6 7 8 8 8 8 8 7 7 7 8 9 9 9 9 9 9 9 9
3 2 2 3 3 3 4 3 4 4 5 6 7 8 7 5 4 5 5 7 7 7 6 5 6 6 6 7 8 8 7 8 8 9 9 12 12 11 11 10 10 10 10
4 4 3 4 4 4 3 3 3 4 5 6 7 7 7 6 5 4 4 5 7 7 6 6 6 5 5 6 7 8 8 8 9 10 10 12 14 13 12 11 11 11 11
5 4 4 4 4 4 4 4 4 5 6 6 7 8 8 7 6 5 4 4 6 7 8 8 7 7 6 6 7 7 7 8 9 10 11 12 12 13 14 13 13 12 12
6 5 4 5 6 5 5 5 5 6 7 7 7 8 8 8 7 7 5 5 7 8 7 5 5 6 6 6 6 6 6 7 9 10 11 12 11 11 13 15 15 14 13
6 6 5 6 6 6 5 6 6 7 7 7 8 8 8 9 9 8 6 5 7 7 5 4 5 4 5 6 6 7 7 6 7 9 10 11 12 13 12 13 15 16 15
6 6 6 6 6 6 4 4 4 5 5 7 8 8 8 8 9 8 7 7 7 5 5 5 6 6 5 5 8 8 7 6 7 8 8 10 12 13 14 14 13 13 16
6 6 6 7 5 5 3 3 3 3 3 4 6 8 8 9 9 8 6 6 6 5 5 5 4 6 5 3 5 5 6 7 8 7 8 8 10 13 15 15 14 14 13
6 6 6 6 6 4 3 3 3 2 2 2 4 8 9 8 8 7 6 5 5 5 6 5 4 3 4 4 3 3 3 5 6 8 7 7 8 11 12 14 15 15 15
6 7 7 6 5 5 4 4 4 4 4 4 4 4 7 8 9 8 8 6 5 5 5 5 4 4 3 4 4 3 3 2 2 4 6 7 7 7 8 11 14 15 15
7 6 6 6 6 5 5 5 5 3 2 1 1 2 5 8 8 8 8 7 6 5 5 4 4 3 4 3 3 4 3 3 3 2 4 5 7 8 8 9 11 14 15
7 7 6 6 5 5 5 6 6 4 2 1 2 4 5 5 7 8 7 7 6 5 5 5 5 5 3 3 2 2 4 4 3 3 2 3 4 5 6 8 10 12 15
6 6 7 7 5 4 5 5 6 6 5 4 3 3 3 3 4 6 6 6 6 5 5 5 5 6 5 5 4 3 2 2 2 3 3 2 3 4 4 6 9 11 13
Wind_Direction
25 95 107 102 101 98 94 90 87 86 86 84 83 82 81 80 80 77 76 74 70 67 67 67 67 66 67 69 69 66 68 69 69 69 75 76 75 77 75 71 69 74 87
136 115 112 107 104 100 95 91 88 86 85 82 80 78 77 76 75 73 71 69 68 65 62 62 64 63 58 59 62 61 64 68 70 69 67 63 66 69 78 77 68 74 80
113 110 114 110 105 101 97 92 90 86 83 80 78 75 73 73 71 69 65 65 65 61 56 57 58 57 54 51 52 52 57 61 65 66 62 53 49 64 76 75 71 70 71
113 111 115 110 106 102 98 93 90 86 82 78 74 71 68 67 66 64 62 62 62 60 54 51 52 51 47 45 46 51 56 56 57 58 56 45 38 61 72 73 75 72 69
106 109 114 112 107 101 95 92 89 86 81 76 72 69 65 62 59 58 59 60 59 58 52 45 46 46 43 41 46 55 59 61 60 55 52 41 31 55 64 64 73 72 70
104 112 119 117 110 102 97 93 88 83 78 72 66 62 59 58 55 51 50 49 48 44 42 40 42 41 40 41 50 59 63 65 63 56 50 37 35 60 61 63 66 63 61
113 117 125 119 111 105 98 90 85 79 70 63 57 52 47 44 43 41 36 32 32 32 34 35 35 36 42 43 49 62 66 66 67 56 43 29 36 61 65 65 61 57 51
116 107 112 116 112 103 93 83 76 69 59 50 45 39 32 31 31 28 23 24 23 24 27 29 28 33 45 50 52 61 64 66 63 50 41 37 52 66 67 61 57 52 43
92 79 64 64 76 78 74 67 58 49 42 37 35 32 28 20 17 16 13 13 14 20 28 33 37 45 57 59 60 66 63 66 59 43 39 41 60 71 73 64 55 41 33
75 70 61 49 49 46 37 38 40 36 36 34 32 29 28 24 20 19 11 12 22 31 35 41 51 61 65 68 72 69 60 58 53 40 34 41 67 81 78 69 52 37 31
98 64 66 45 40 39 26 31 34 36 35 34 35 35 35 31 26 23 20 26 31 38 42 48 59 61 62 63 69 68 62 54 49 39 32 43 68 81 79 72 55 40 34
167 189 113 77 35 29 31 35 34 37 38 37 36 35 36 36 32 31 27 30 34 38 41 45 50 54 58 55 57 61 57 49 45 31 26 38 64 80 79 68 58 48 42
181 186 143 142 64 44 40 41 39 41 40 37 36 38 43 43 37 33 30 27 30 34 36 38 45 49 57 57 56 55 54 53 44 34 24 40 61 72 71 66 60 55 48
152 172 140 108 87 70 68 56 51 48 40 35 34 39 46 42 34 29 30 26 29 30 38 45 49 53 59 61 61 58 54 54 49 41 38 48 55 62 63 63 59 56 50
150 165 138 112 103 95 79 60 59 52 49 46 43 41 49 52 36 34 32 34 33 37 46 50 52 55 56 57 58 59 55 54 53 49 42 47 50 54 59 60 56 53 49
159 160 127 113 113 106 91 74 61 58 58 55 48 45 54 58 52 47 39 36 33 35 48 58 59 63 59 61 56 54 56 53 52 51 48 46 49 51 54 55 53 51 48
156 143 131 125 111 104 93 80 71 59 61 54 44 48 54 57 59 57 47 38 31 43 58 64 61 63 63 60 52 49 55 57 56 53 51 48 47 48 49 49 50 49 45
148 139 139 129 116 105 91 80 72 63 60 51 47 50 52 55 61 61 52 35 36 52 59 63 57 66 61 61 57 46 47 52 53 54 52 47 45 44 44 47 46 44 41
152 138 127 119 116 106 92 81 71 62 53 48 49 47 49 55 58 63 55 40 46 54 52 65 58 71 73 69 67 54 45 47 46 51 49 46 45 44 44 42 43 41 37
135 127 122 113 111 105 89 75 59 49 41 43 43 42 47 55 58 62 57 44 50 58 51 57 71 64 67 71 77 63 49 45 47 42 42 45 45 46 44 41 38 35 35
127 129 133 130 130 121 101 92 78 50 23 26 33 39 47 55 59 62 57 47 48 60 60 64 79 71 53 42 76 62 45 45 48 39 38 40 38 39 41 40 38 35 31
147 146 145 145 144 137 124 119 112 103 59 35 26 37 41 49 55 64 61 54 48 60 57 53 69 82 48 30 79 84 51 30 27 30 33 38 32 35 37 37 37 35 32
160 165 162 157 148 139 128 108 84 58 40 29 21 17 21 43 57 63 64 62 53 59 63 55 62 88 87 42 48 108 115 121 37 16 28 34 31 32 27 32 34 32 31
177 166 157 154 148 145 140 134 129 119 107 54 21 20 26 43 52 59 63 62 58 56 59 54 61 77 101 86 50 47 84 131 125 63 12 19 31 34 27 28 27 28 29
169 162 156 148 147 148 144 141 129 118 119 88 57 51 38 34 43 51 62 65 61 59 59 59 60 65 74 92 88 77 69 62 69 110 70 5 19 21 23 21 23 23 24
160 156 151 149 153 148 143 143 142 139 136 117 86 66 41 32 30 39 58 64 66 66 61 63 65 67 68 78 78 75 93 95 92 102 108 54 25 356 6 19 23 17 21
Height
1534 1534 1535 1535 1535 1535 1535 1535 1536 1536 1536 1536 1536 1536 1536 1536 1536 1536 1536 1536 1536 1536 1535 1536 1536 1536 1536 1536 1536 1536 1536 1536 1537 1537 1537 1538 1538 1538 1538 1538 1538 1538 1538
1535 1535 1536 1536 1536 1536 1537 1537 1537 1537 1537 1537 1537 1537 1537 1536 1536 1536 1536 1536 1536 1536 1536 1536 1536 1536 1536 1536 1536 1536 1537 1537 1537 1537 1538 1538 1538 1538 1538 1539 1538 1538 1539
1536 1536 1537 1537 1537 1537 1538 1538 1538 1538 1538 1538 1538 1538 1538 1537 1537 1537 1537 1536 1536 1536 1536 1536 1536 1536 1536 1536 1537 1537 1537 1537 1537 1538 1538 1538 1539 1539 1539 1539 1539 1539 1539
1537 1538 1538 1539 1539 1539 1539 1539 1539 1539 1539 1539 1539 1539 1538 1538 1538 1537 1537 1537 1537 1536 1536 1537 1537 1537 1537 1537 1537 1537 1537 1538 1538 1538 1538 1539 1539 1540 1540 1540 1540 1540 1540
1538 1539 1540 1540 1541 1541 1541 1541 1541 1541 1541 1540 1540 1540 1539 1539 1538 1538 1538 1537 1537 1537 1537 1537 1537 1537 1537 1537 1537 1537 1538 1538 1538 1538 1539 1539 1540 1540 1540 1540 1541 1541 1541
1540 1541 1541 1542 1542 1542 1542 1542 1543 1542 1542 1542 1541 1541 1540 1540 1539 1539 1538 1538 1538 1537 1537 1537 1537 1537 1537 1537 1538 1538 1538 1538 1539 1539 1539 1540 1540 1541 1541 1541 1541 1541 1541
1542 1543 1543 1544 1544 1544 1544 1544 1544 1544 1544 1544 1543 1542 1542 1541 1541 1540 1540 1539 1539 1538 1538 1538 1538 1538 1538 1538 1538 1538 1538 1539 1539 1540 1540 1540 1541 1541 1541 1541 1542 1541 1541
1543 1544 1545 1546 1546 1546 1546 1546 1546 1546 1546 1545 1545 1544 1543 1543 1542 1542 1541 1541 1540 1540 1539 1539 1539 1539 1539 1539 1539 1539 1539 1539 1540 1540 1541 1541 1542 1542 1542 1542 1542 1542 1541
1546 1546 1547 1547 1548 1548 1548 1548 1548 1548 1547 1547 1546 1545 1545 1544 1543 1543 1542 1542 1541 1541 1540 1540 1540 1539 1539 1539 1539 1539 1540 1540 1540 1541 1541 1542 1542 1542 1542 1542 1542 1542 1541
1548 1548 1549 1549 1550 1550 1550 1550 1550 1549 1549 1548 1547 1547 1546 1545 1545 1544 1544 1543 1542 1542 1541 1541 1541 1540 1540 1540 1540 1540 1541 1541 1542 1542 1542 1542 1543 1543 1543 1543 1542 1542 1541
1549 1550 1551 1551 1552 1552 1552 1552 1551 1551 1550 1550 1549 1548 1547 1547 1546 1545 1545 1544 1543 1543 1543 1542 1542 1542 1542 1541 1541 1542 1542 1542 1543 1543 1543 1543 1543 1543 1543 1543 1543 1543 1541
1551 1552 1552 1553 1553 1554 1553 1553 1553 1553 1552 1551 1550 1549 1549 1548 1547 1547 1546 1545 1545 1544 1544 1544 1543 1543 1543 1543 1543 1543 1544 1544 1544 1544 1545 1545 1545 1544 1544 1544 1544 1543 1542
1552 1553 1554 1555 1555 1555 1555 1555 1555 1554 1554 1553 1552 1551 1550 1549 1549 1548 1547 1546 1546 1546 1545 1545 1545 1545 1545 1545 1545 1545 1545 1546 1546 1546 1546 1546 1546 1546 1545 1545 1545 1545 1544
1553 1555 1555 1556 1557 1557 1557 1557 1556 1556 1555 1554 1553 1552 1552 1551 1550 1549 1548 1548 1547 1547 1547 1546 1546 1546 1546 1547 1547 1547 1547 1548 1548 1548 1548 1547 1547 1547 1547 1546 1546 1546 1545
1555 1556 1557 1558 1558 1558 1558 1558 1558 1557 1556 1556 1555 1554 1553 1552 1551 1550 1549 1549 1549 1548 1548 1548 1548 1548 1548 1549 1549 1549 1549 1550 1550 1550 1549 1549 1549 1548 1548 1548 1547 1547 1546
1556 1557 1558 1559 1559 1560 1560 1559 1559 1558 1558 1557 1556 1555 1554 1554 1552 1552 1551 1550 1550 1550 1550 1550 1550 1550 1550 1551 1551 1551 1551 1552 1552 1551 1551 1551 1550 1550 1549 1549 1549 1548 1548
1557 1558 1559 1560 1561 1561 1561 1561 1560 1560 1559 1558 1558 1557 1556 1555 1554 1553 1552 1552 1552 1551 1551 1551 1552 1552 1552 1553 1553 1553 1553 1554 1554 1553 1553 1552 1552 1552 1551 1551 1551 1550 1549
1558 1559 1560 1561 1562 1562 1562 1562 1562 1561 1561 1560 1559 1558 1557 1556 1556 1555 1554 1553 1553 1553 1553 1553 1553 1554 1554 1555 1555 1555 1556 1556 1556 1556 1555 1555 1554 1554 1553 1553 1552 1552 1551
1559 1560 1561 1562 1563 1563 1564 1563 1563 1563 1562 1561 1561 1560 1559 1558 1557 1556 1556 1555 1555 1555 1555 1555 1555 1555 1556 1556 1557 1557 1558 1558 1558 1558 1557 1557 1556 1556 1555 1555 1554 1553 1552
1560 1561 1563 1563 1564 1564 1565 1565 1564 1564 1563 1563 1562 1561 1560 1560 1559 1558 1557 1557 1557 1556 1556 1556 1557 1557 1557 1558 1559 1559 1559 1560 1560 1560 1559 1559 1558 1558 1557 1556 1556 1555 1554
1560 1562 1563 1564 1565 1566 1566 1566 1566 1565 1565 1564 1564 1563 1562 1561 1561 1560 1559 1559 1558 1558 1558 1558 1558 1559 1559 1560 1560 1561 1561 1562 1562 1562 1561 1561 1560 1560 1559 1558 1557 1556 1555
1560 1562 1564 1565 1566 1567 1567 1567 1567 1567 1566 1566 1565 1565 1564 1563 1562 1562 1561 1561 1560 1560 1560 1560 1560 1560 1561 1561 1562 1562 1563 1565 1564 1564 1564 1563 1562 1562 1561 1560 1559 1558 1557
1560 1562 1564 1565 1567 1567 1568 1568 1568 1568 1568 1567 1567 1566 1566 1565 1565 1564 1563 1563 1562 1562 1562 1562 1562 1562 1562 1563 1563 1564 1564 1565 1566 1567 1566 1565 1564 1564 1563 1562 1561 1559 1558
1560 1562 1564 1566 1567 1568 1569 1569 1569 1569 1569 1569 1568 1568 1568 1567 1567 1566 1565 1565 1564 1564 1564 1564 1564 1564 1564 1565 1565 1565 1566 1566 1566 1568 1568 1567 1567 1566 1565 1564 1563 1562 1560
1560 1562 1564 1566 1567 1568 1569 1570 1570 1570 1570 1570 1570 1570 1569 1569 1568 1568 1567 1567 1566 1566 1566 1566 1566 1566 1566 1566 1566 1566 1566 1567 1567 1568 1568 1569 1568 1568 1567 1566 1564 1563 1562
1559 1561 1563 1565 1567 1568 1569 1570 1571 1571 1571 1571 1571 1571 1571 1570 1570 1570 1569 1568 1568 1568 1567 1567 1567 1567 1567 1568 1568 1568 1568 1568 1568 1568 1569 1569 1569 1569 1568 1568 1566 1565 1564